Weather in Visakhapatnam

India     17°44′05″N   83°12′33″E
temp.,
°C
wind,
m/s
gust,
m/s
humid.,
%
clouds,
%
prec.,
mm/h
press.,
hPa
HPBL,
m
20 april, tue
tue2023:30+29ssw477924 0.0 1008499
02:30+28sw47865 0.0 1006507
05:30+27sw368812 0.0 1008441
08:30+31ssw56655 0.0 1010900
11:30+33ssw77533 0.0 10091102
14:30+33ssw6754100 0.0 10061090
17:30+30sw6106946 0.0 1006746
20:30+29ssw467328 0.0 1008320
21 april, wed
wed2123:30+28sw477792 0.0 1008398
02:30+28sw367415 0.0 1007371
05:30+27sw356919 0.0 1008294
08:30+31sw57575 0.0 1010791
11:30+34ssw78504 0.0 10091202
14:30+33ssw89570 0.0 1006865
17:30+30ssw78677 0.0 1007598
20:30+29ssw587257 0.0 1009583
22 april, thu
thu2223:30+28sw5878100 0.0 1009518
02:30+28sw4980100 0.0 1007482
05:30+28sw5107937 0.0 1008482
08:30+31sw455593 0.0 1010794
11:30+34s76488 0.0 10091216
14:30+33ssw775478 0.1 1006977
17:30+31sw5660100 0.1 1006491
20:30+30ssw61071100 0.0 1008533
23 april, fri
fri2323:30+29ssw5876100 0.0 1007391
02:30+28sw457668 0.0 1005273
05:30+28sw367676 0.0 1007338
08:30+31sw445977 0.0 1009673
11:30+35s76465 0.0 10071150
14:30+33s885891 0.0 1004600
17:30+30ssw7106925 0.0 1005585
20:30+29sw5876100 0.0 1007507
24 april, sat
sat2423:30+28ssw358044 0.0 1007347
02:30+28ssw34838 0.0 1006368
05:30+28sw47876 0.0 1008422
08:30+32sw57605 0.0 1009791
11:30+35s764991 0.0 10071077
14:30+32s786344 0.0 1005708
17:30+31ssw6864100 0.0 1006600
20:30+29ssw5777100 0.0 1008632